EW8308 Weather Reports


time (UTC)temp
C
wind
direction
speed
KPH
gust
KPH
rain 1hr
cm
rain 24hr
cm
rain mn
cm
humidity
%
barometer
mb
20260503050628 13 250 6.4 6.4 0.00 0.00 0.00 55 1014.4
20260503050127 13 249 4.8 6.4 0.00 0.00 0.00 55 1014.3
20260503045626 13 249 4.8 6.4 0.00 0.00 0.00 55 1014.4
20260503045124 13 250 4.8 6.4 0.00 0.00 0.00 55 1014.3
20260503044623 13 250 4.8 6.4 0.00 0.00 0.00 57 1014.3
20260503044122 13 250 4.8 6.4 0.00 0.00 0.00 57 1014.3
20260503043622 13 250 3.2 4.8 0.00 0.00 0.00 57 1014.3
20260503043120 13 250 1.6 4.8 0.00 0.00 0.00 57 1014.3
20260503042620 13 250 3.2 6.4 0.00 0.00 0.00 60 1014.2
20260503041119 14 249 6.4 6.4 0.00 0.00 0.00 58 1014.1
20260503040119 15 250 4.8 6.4 0.00 0.00 0.00 56 1014.1
20260503035620 15 250 4.8 6.4 0.00 0.00 0.00 56 1014.1
20260503034618 15 250 4.8 6.4 0.00 0.00 0.00 56 1014.0
20260503034117 16 250 6.4 9.7 0.00 0.00 0.00 55 1014.0
20260503033616 16 250 6.4 9.7 0.00 0.00 0.00 54 1013.9
20260503032117 16 250 6.4 6.4 0.00 0.00 0.00 58 1013.6
20260503031615 16 250 4.8 6.4 0.00 0.00 0.00 55 1013.6
20260503025116 18 249 4.8 8.0 0.00 0.00 0.00 49 1013.5
20260503024613 18 250 4.8 4.8 0.00 0.00 0.00 48 1013.5
20260503024113 19 250 4.8 4.8 0.00 0.00 0.00 47 1013.5
20260503023612 19 250 4.8 6.4 0.00 0.00 0.00 49 1013.5
20260503023113 20 250 4.8 6.4 0.00 0.00 0.00 45 1013.4
20260503022611 20 249 3.2 6.4 0.00 0.00 0.00 44 1013.4
20260503022114 20 249 3.2 4.8 0.00 0.00 0.00 44 1013.4
20260503021612 21 249 1.6 4.8 0.00 0.00 0.00 41 1013.4
20260503021111 21 250 3.2 4.8 0.00 0.00 0.00 41 1013.2
20260503020612 21 249 3.2 6.4 0.00 0.00 0.00 40 1013.1
20260503020113 22 250 4.8 6.4 0.00 0.00 0.00 38 1013.1
20260503015613 22 250 3.2 6.4 0.00 0.00 0.00 39 1013.2
20260503015112 22 250 3.2 6.4 0.00 0.00 0.00 37 1013.1
20260503014612 22 249 3.2 6.4 0.00 0.00 0.00 38 1013.1
20260503014113 22 249 3.2 6.4 0.00 0.00 0.00 38 1013.1
20260503013111 22 249 3.2 6.4 0.00 0.00 0.00 37 1013.1
20260503012113 23 250 3.2 6.4 0.00 0.00 0.00 33 1013.1
20260503011612 23 250 3.2 9.7 0.00 0.00 0.00 35 1013.2
20260503011113 23 250 6.4 12.9 0.00 0.00 0.00 33 1013.2
20260503010612 23 249 4.8 12.9 0.00 0.00 0.00 32 1013.2
20260503010113 24 250 4.8 9.7 0.00 0.00 0.00 32 1013.2
20260503005613 24 250 4.8 12.9 0.00 0.00 0.00 33 1013.2
20260503005112 24 249 4.8 12.9 0.00 0.00 0.00 32 1013.4
20260503004609 24 249 4.8 12.9 0.00 0.00 0.00 30 1013.2
20260503004111 24 250 3.2 9.7 0.00 0.00 0.00 30 1013.4
20260503003109 24 249 6.4 14.5 0.00 0.00 0.00 29 1013.5
20260503002610 24 250 4.8 14.5 0.00 0.00 0.00 30 1013.4
20260503002111 25 249 3.2 12.9 0.00 0.00 0.00 29 1013.4
20260503001608 25 249 4.8 12.9 0.00 0.00 0.00 34 1013.4
20260503001108 25 250 4.8 12.9 0.00 0.00 0.00 36 1013.4
20260503000605 25 249 3.2 11.3 0.00 0.00 0.00 30 1013.4
20260502235103 25 249 3.2 8.0 0.00 0.00 0.00 30 1013.6
20260502234603 25 249 1.6 8.0 0.00 0.00 0.00 32 1013.6
20260502233603 25 249 3.2 9.7 0.00 0.00 0.00 30 1013.6
20260502233102 25 249 3.2 9.7 0.00 0.00 0.00 29 1013.7
20260502232102 25 250 4.8 11.3 0.00 0.00 0.00 29 1013.7
20260502231601 25 249 3.2 8.0 0.00 0.00 0.00 30 1013.8
20260502231101 25 250 3.2 8.0 0.00 0.00 0.00 29 1013.9
20260502230559 25 250 1.6 6.4 0.00 0.00 0.00 30 1013.9
20260502230059 25 250 1.6 4.8 0.00 0.00 0.00 30 1013.9
20260502225559 24 250 4.8 11.3 0.00 0.00 0.00 31 1014.0
20260502224559 24 249 4.8 16.1 0.00 0.00 0.00 32 1014.1
20260502224059 24 250 8.0 16.1 0.00 0.00 0.00 36 1014.2
20260502223057 24 249 6.4 16.1 0.00 0.00 0.00 31 1014.4
20260502222557 24 250 6.4 16.1 0.00 0.00 0.00 30 1014.4
20260502222056 24 249 6.4 17.7 0.00 0.00 0.00 31 1014.4
20260502221055 24 250 4.8 12.9 0.00 0.00 0.00 31 1014.5
20260502220554 24 249 6.4 16.1 0.00 0.00 0.00 30 1014.7
20260502220054 24 250 6.4 16.1 0.00 0.00 0.00 27 1014.7
20260502215551 24 250 4.8 12.9 0.00 0.00 0.00 30 1014.8
20260502214551 24 250 8.0 17.7 0.00 0.00 0.00 28 1014.9
20260502214050 24 250 6.4 8.0 0.00 0.00 0.00 32 1014.9
20260502213551 24 250 6.4 11.3 0.00 0.00 0.00 29 1015.0
20260502213050 24 249 4.8 12.9 0.00 0.00 0.00 32 1015.0
20260502212549 24 250 3.2 9.7 0.00 0.00 0.00 32 1015.0
20260502212049 23 249 6.4 12.9 0.00 0.00 0.00 27 1015.1
20260502211049 23 249 8.0 17.7 0.00 0.00 0.00 28 1015.2
20260502210547 23 249 8.0 17.7 0.00 0.00 0.00 31 1015.2
20260502210046 23 250 4.8 14.5 0.00 0.00 0.00 31 1015.2
20260502205547 23 249 4.8 12.9 0.00 0.00 0.00 27 1015.2
20260502205045 23 250 4.8 12.9 0.00 0.00 0.00 28 1015.3
20260502204043 23 249 3.2 8.0 0.00 0.00 0.00 27 1015.4
20260502203543 23 249 3.2 9.7 0.00 0.00 0.00 30 1015.4
20260502202039 23 250 3.2 9.7 0.00 0.00 0.00 32 1015.5
20260502201538 23 250 3.2 8.0 0.00 0.00 0.00 30 1015.5
20260502201038 23 250 4.8 9.7 0.00 0.00 0.00 32 1015.6
20260502200538 23 250 3.2 9.7 0.00 0.00 0.00 29 1015.6
20260502200037 23 250 1.6 9.7 0.00 0.00 0.00 32 1015.6
20260502195536 23 249 1.6 11.3 0.00 0.00 0.00 31 1015.6
20260502195037 23 249 3.2 11.3 0.00 0.00 0.00 30 1015.7
20260502194536 23 250 4.8 9.7 0.00 0.00 0.00 31 1015.7
20260502194037 22 250 4.8 9.7 0.00 0.00 0.00 33 1015.7
20260502193537 23 250 1.6 9.7 0.00 0.00 0.00 31 1016.0
20260502193035 22 249 3.2 9.7 0.00 0.00 0.00 36 1016.0
20260502192535 22 249 3.2 9.7 0.00 0.00 0.00 33 1016.1
20260502192033 22 250 4.8 11.3 0.00 0.00 0.00 32 1016.1
20260502191031 22 250 6.4 14.5 0.00 0.00 0.00 33 1016.2
20260502190029 22 249 3.2 11.3 0.00 0.00 0.00 34 1016.2
20260502185529 22 250 3.2 9.7 0.00 0.00 0.00 34 1016.3
20260502184531 21 249 3.2 12.9 0.00 0.00 0.00 34 1016.4
20260502184030 21 250 3.2 9.7 0.00 0.00 0.00 38 1016.4
20260502183028 21 249 4.8 11.3 0.00 0.00 0.00 37 1016.5
20260502182028 21 250 3.2 8.0 0.00 0.00 0.00 40 1016.6
20260502181528 21 250 3.2 9.7 0.00 0.00 0.00 38 1016.6
20260502181028 21 249 4.8 9.7 0.00 0.00 0.00 42 1016.6
20260502180526 21 249 4.8 9.7 0.00 0.00 0.00 37 1016.6
20260502170518 18 249 1.6 8.0 0.00 0.00 0.00 41 1016.7
20260502163013 17 250 3.2 8.0 0.00 0.00 0.00 42 1016.8
20260502162013 17 250 1.6 4.8 0.00 0.00 0.00 51 1016.9
20260502161012 16 250 1.6 4.8 0.00 0.00 0.00 50 1016.9
20260502152012 14 249 0.0 1.6 0.00 0.00 0.00 60 1016.9
20260502151513 13 250 1.6 4.8 0.00 0.00 0.00 59 1016.9
20260502151013 13 250 1.6 4.8 0.00 0.00 0.00 59 1016.9
20260502150513 12 250 0.0 4.8 0.00 0.00 0.00 61 1016.9
20260502130500 7 249 1.6 6.4 0.00 0.00 0.00 74 1016.4
20260502123500 7 250 1.6 6.4 0.00 0.00 0.00 72 1016.4
20260502123000 7 250 1.6 6.4 0.00 0.00 0.00 71 1016.3
20260502121958 8 250 0.0 8.0 0.00 0.00 0.00 69 1016.4
20260502121456 8 250 0.0 3.2 0.00 0.00 0.00 70 1016.4
20260502120455 7 250 1.6 3.2 0.00 0.00 0.00 72 1016.4
20260502115456 7 249 3.2 6.4 0.00 0.00 0.00 74 1016.4
20260502114954 7 250 4.8 6.4 0.00 0.00 0.00 75 1016.4
20260502114452 7 250 4.8 6.4 0.00 0.00 0.00 76 1016.4
20260502113952 7 250 3.2 6.4 0.00 0.00 0.00 76 1016.3
20260502113452 7 250 3.2 6.4 0.00 0.00 0.00 75 1016.3
20260502112950 7 250 3.2 4.8 0.00 0.00 0.00 75 1016.2
20260502112448 7 250 3.2 4.8 0.00 0.00 0.00 75 1016.3
20260502111448 7 250 1.6 3.2 0.00 0.00 0.00 74 1016.2
20260502110446 8 250 0.0 3.2 0.00 0.00 0.00 70 1016.2
20260502105945 8 250 1.6 4.8 0.00 0.00 0.00 71 1016.1
20260502105442 7 250 0.0 4.8 0.00 0.00 0.00 71 1016.1
20260502104440 8 250 0.0 0.0 0.00 0.00 0.00 71 1016.1
20260502103940 8 250 0.0 0.0 0.00 0.00 0.00 70 1016.2
20260502103438 8 250 1.6 4.8 0.00 0.00 0.00 68 1016.2
20260502102938 8 250 1.6 4.8 0.00 0.00 0.00 69 1016.2
20260502102436 8 250 1.6 3.2 0.00 0.00 0.00 67 1016.3
20260502101934 8 250 1.6 3.2 0.00 0.00 0.00 67 1016.2
20260502101431 8 250 1.6 6.4 0.00 0.00 0.00 68 1016.3
20260502100930 8 250 1.6 6.4 0.00 0.00 0.00 68 1016.2
20260502091419 8 250 1.6 4.8 0.00 0.00 0.00 67 1016.3
20260502090919 8 250 3.2 4.8 0.00 0.00 0.00 69 1016.2
20260502090418 8 250 1.6 4.8 0.00 0.00 0.00 70 1016.3
20260502071359 11 250 0.0 3.2 0.00 0.00 0.00 59 1016.3
20260502070359 11 250 0.0 0.0 0.00 0.00 0.00 58 1016.2
20260502064356 12 250 0.0 1.6 0.00 0.00 0.00 58 1016.3
20260502063855 11 250 0.0 1.6 0.00 0.00 0.00 58 1016.3
20260502061846 12 249 0.0 1.6 0.00 0.00 0.00 58 1016.2
20260502060845 12 250 0.0 3.2 0.00 0.00 0.00 56 1016.2
20260502060345 12 250 0.0 3.2 0.00 0.00 0.00 56 1016.2
20260502055845 12 249 1.6 3.2 0.00 0.00 0.00 55 1016.2
20260502055344 12 250 0.0 3.2 0.00 0.00 0.00 55 1016.3
20260502054342 12 250 0.0 0.0 0.00 0.00 0.00 54 1016.3
20260502053840 13 250 0.0 0.0 0.00 0.00 0.00 53 1016.3
20260502053338 13 250 0.0 1.6 0.00 0.00 0.00 52 1016.3
20260502052337 13 250 4.8 8.0 0.00 0.00 0.00 53 1016.3
20260502051838 12 250 3.2 8.0 0.00 0.00 0.00 56 1016.2